Year,Month,Day,Hour,Minute,Value (Times are PST for windspeed in km/hr)
2014,02,15,00,00,6.60
2014,02,15,00,01,6.30
2014,02,15,00,02,5.90
2014,02,15,00,03,3.80
2014,02,15,00,04,3.60
2014,02,15,00,05,5.50
2014,02,15,00,06,6.00
2014,02,15,00,07,5.20
2014,02,15,00,08,5.90
2014,02,15,00,09,6.40
2014,02,15,00,10,6.20
2014,02,15,00,11,6.40
2014,02,15,00,12,6.00
2014,02,15,00,13,5.50
2014,02,15,00,14,4.80
2014,02,15,00,15,4.80
2014,02,15,00,16,5.70
2014,02,15,00,17,6.80
2014,02,15,00,18,7.30
2014,02,15,00,19,7.20
2014,02,15,00,20,7.90
2014,02,15,00,21,7.60
2014,02,15,00,22,7.40
2014,02,15,00,23,9.40
2014,02,15,00,24,7.90
2014,02,15,00,25,7.50
2014,02,15,00,26,6.60
2014,02,15,00,27,6.80
2014,02,15,00,28,7.60
2014,02,15,00,29,7.80
2014,02,15,00,30,8.10
2014,02,15,00,31,8.00
2014,02,15,00,32,7.00
2014,02,15,00,33,6.50
2014,02,15,00,34,6.10
2014,02,15,00,35,6.50
2014,02,15,00,36,6.50
2014,02,15,00,37,6.70
2014,02,15,00,38,6.80
2014,02,15,00,39,7.30
2014,02,15,00,40,6.30
2014,02,15,00,41,5.40
2014,02,15,00,42,6.00
2014,02,15,00,43,6.40
2014,02,15,00,44,6.40
2014,02,15,00,45,6.10
2014,02,15,00,46,6.40
2014,02,15,00,47,6.30
2014,02,15,00,48,6.40
2014,02,15,00,49,6.30
2014,02,15,00,50,5.60
2014,02,15,00,51,4.50
2014,02,15,00,52,5.20
2014,02,15,00,53,5.10
2014,02,15,00,54,5.20
2014,02,15,00,55,4.60
2014,02,15,00,56,3.60
2014,02,15,00,57,0.10
2014,02,15,00,58,0.00
2014,02,15,00,59,1.40
2014,02,15,01,00,3.80
2014,02,15,01,01,6.20
2014,02,15,01,02,7.10
2014,02,15,01,03,7.10
2014,02,15,01,04,6.50
2014,02,15,01,05,4.90
2014,02,15,01,06,4.10
2014,02,15,01,07,5.00
2014,02,15,01,08,5.00
2014,02,15,01,09,5.10
2014,02,15,01,10,4.50
2014,02,15,01,11,4.80
2014,02,15,01,12,7.70
2014,02,15,01,13,8.20
2014,02,15,01,14,8.20
2014,02,15,01,15,8.60
2014,02,15,01,16,6.20
2014,02,15,01,17,6.40
2014,02,15,01,18,5.40
2014,02,15,01,19,5.80
2014,02,15,01,20,6.80
2014,02,15,01,21,7.70
2014,02,15,01,22,8.20
2014,02,15,01,23,7.60
2014,02,15,01,24,6.50
2014,02,15,01,25,9.00
2014,02,15,01,26,9.80
2014,02,15,01,27,10.30
2014,02,15,01,28,15.50
2014,02,15,01,29,11.20
2014,02,15,01,30,13.00
2014,02,15,01,31,10.20
2014,02,15,01,32,9.30
2014,02,15,01,33,10.50
2014,02,15,01,34,9.10
2014,02,15,01,35,8.00
2014,02,15,01,36,10.90
2014,02,15,01,37,8.80
2014,02,15,01,38,11.10
2014,02,15,01,39,14.10
2014,02,15,01,40,9.70
2014,02,15,01,41,8.70
2014,02,15,01,42,9.60
2014,02,15,01,43,11.70
2014,02,15,01,44,9.40
2014,02,15,01,45,7.50
2014,02,15,01,46,9.80
2014,02,15,01,47,6.50
2014,02,15,01,48,7.80
2014,02,15,01,49,6.00
2014,02,15,01,50,12.50
2014,02,15,01,51,10.70
2014,02,15,01,52,9.20
2014,02,15,01,53,5.10
2014,02,15,01,54,3.60
2014,02,15,01,55,5.30
2014,02,15,01,56,6.10
2014,02,15,01,57,6.10
2014,02,15,01,58,5.60
2014,02,15,01,59,5.30
2014,02,15,02,00,5.70
2014,02,15,02,01,6.90
2014,02,15,02,02,6.60
2014,02,15,02,03,4.30
2014,02,15,02,04,4.90
2014,02,15,02,05,5.70
2014,02,15,02,06,4.60
2014,02,15,02,07,4.80
2014,02,15,02,08,5.50
2014,02,15,02,09,3.90
2014,02,15,02,10,4.10
2014,02,15,02,11,4.40
2014,02,15,02,12,2.60
2014,02,15,02,13,4.50
2014,02,15,02,14,3.90
2014,02,15,02,15,3.40
2014,02,15,02,16,4.90
2014,02,15,02,17,4.10
2014,02,15,02,18,4.20
2014,02,15,02,19,3.80
2014,02,15,02,20,7.50
2014,02,15,02,21,5.80
2014,02,15,02,22,5.70
2014,02,15,02,23,6.80
2014,02,15,02,24,7.50
2014,02,15,02,25,7.60
2014,02,15,02,26,7.40
2014,02,15,02,27,8.00
2014,02,15,02,28,7.00
2014,02,15,02,29,7.80
2014,02,15,02,30,8.70
2014,02,15,02,31,7.00
2014,02,15,02,32,9.70
2014,02,15,02,33,9.30
2014,02,15,02,34,8.10
2014,02,15,02,35,10.20
2014,02,15,02,36,9.70
2014,02,15,02,37,9.00
2014,02,15,02,38,10.50
2014,02,15,02,39,9.10
2014,02,15,02,40,9.10
2014,02,15,02,41,7.60
2014,02,15,02,42,9.30
2014,02,15,02,43,8.60
2014,02,15,02,44,7.50
2014,02,15,02,45,7.10
2014,02,15,02,46,7.00
2014,02,15,02,47,8.50
2014,02,15,02,48,11.10
2014,02,15,02,49,10.80
2014,02,15,02,50,10.90
2014,02,15,02,51,10.90
2014,02,15,02,52,16.70
2014,02,15,02,53,15.50
2014,02,15,02,54,13.60
2014,02,15,02,55,16.80
2014,02,15,02,56,17.50
2014,02,15,02,57,16.20
2014,02,15,02,58,15.40
2014,02,15,02,59,19.70
2014,02,15,03,00,20.00
2014,02,15,03,01,19.30
2014,02,15,03,02,17.50
2014,02,15,03,03,17.40
2014,02,15,03,04,17.70
2014,02,15,03,05,14.20
2014,02,15,03,06,16.70
2014,02,15,03,07,17.10
2014,02,15,03,08,17.20
2014,02,15,03,09,13.90
2014,02,15,03,10,18.80
2014,02,15,03,11,17.10
2014,02,15,03,12,16.90
2014,02,15,03,13,17.70
2014,02,15,03,14,17.40
2014,02,15,03,15,19.80
2014,02,15,03,16,17.60
2014,02,15,03,17,16.20
2014,02,15,03,18,13.10
2014,02,15,03,19,21.90
2014,02,15,03,20,18.40
2014,02,15,03,21,19.50
2014,02,15,03,22,21.00
2014,02,15,03,23,17.50
2014,02,15,03,24,17.90
2014,02,15,03,25,14.50
2014,02,15,03,26,18.60
2014,02,15,03,27,19.40
2014,02,15,03,28,15.80
2014,02,15,03,29,19.80
2014,02,15,03,30,19.00
2014,02,15,03,31,20.50
2014,02,15,03,32,14.10
2014,02,15,03,33,15.00
2014,02,15,03,34,11.90
2014,02,15,03,35,12.70
2014,02,15,03,36,10.00
2014,02,15,03,37,9.80
2014,02,15,03,38,10.40
2014,02,15,03,39,9.30
2014,02,15,03,40,9.10
2014,02,15,03,41,7.70
2014,02,15,03,42,8.40
2014,02,15,03,43,7.10
2014,02,15,03,44,7.80
2014,02,15,03,45,10.90
2014,02,15,03,46,7.20
2014,02,15,03,47,8.10
2014,02,15,03,48,5.60
2014,02,15,03,49,6.30
2014,02,15,03,50,3.80
2014,02,15,03,51,7.50
2014,02,15,03,52,7.20
2014,02,15,03,53,7.60
2014,02,15,03,54,6.00
2014,02,15,03,55,9.60
2014,02,15,03,56,8.70
2014,02,15,03,57,9.10
2014,02,15,03,58,8.50
2014,02,15,03,59,13.40
2014,02,15,04,00,15.60
2014,02,15,04,01,13.10
2014,02,15,04,02,12.10
2014,02,15,04,03,16.40
2014,02,15,04,04,14.60
2014,02,15,04,05,15.80
2014,02,15,04,06,15.10
2014,02,15,04,07,16.00
2014,02,15,04,08,14.10
2014,02,15,04,09,15.00
2014,02,15,04,10,14.20
2014,02,15,04,11,14.30
2014,02,15,04,12,13.90
2014,02,15,04,13,13.40
2014,02,15,04,14,15.00
2014,02,15,04,15,12.60
2014,02,15,04,16,8.60
2014,02,15,04,17,8.90
2014,02,15,04,18,8.40
2014,02,15,04,19,10.20
2014,02,15,04,20,14.80
2014,02,15,04,21,15.20
2014,02,15,04,22,11.00
2014,02,15,04,23,14.60
2014,02,15,04,24,14.30
2014,02,15,04,25,13.00
2014,02,15,04,26,12.20
2014,02,15,04,27,9.90
2014,02,15,04,28,11.40
2014,02,15,04,29,11.30
2014,02,15,04,30,12.90
2014,02,15,04,31,12.80
2014,02,15,04,32,16.30
2014,02,15,04,33,12.20
2014,02,15,04,34,10.30
2014,02,15,04,35,14.20
2014,02,15,04,36,15.30
2014,02,15,04,37,14.00
2014,02,15,04,38,11.90
2014,02,15,04,39,10.20
2014,02,15,04,40,13.40
2014,02,15,04,41,10.90
2014,02,15,04,42,11.20
2014,02,15,04,43,10.80
2014,02,15,04,44,12.60
2014,02,15,04,45,11.90
2014,02,15,04,46,12.40
2014,02,15,04,47,9.20
2014,02,15,04,48,10.10
2014,02,15,04,49,10.70
2014,02,15,04,50,9.00
2014,02,15,04,51,10.80
2014,02,15,04,52,11.50
2014,02,15,04,53,10.70
2014,02,15,04,54,9.00
2014,02,15,04,55,9.40
2014,02,15,04,56,7.60
2014,02,15,04,57,9.20
2014,02,15,04,58,8.50
2014,02,15,04,59,8.90
2014,02,15,05,00,11.30
2014,02,15,05,01,11.00
2014,02,15,05,02,10.40
2014,02,15,05,03,9.40
2014,02,15,05,04,8.50
2014,02,15,05,05,9.60
2014,02,15,05,06,8.30
2014,02,15,05,07,6.90
2014,02,15,05,08,7.20
2014,02,15,05,09,7.30
2014,02,15,05,10,7.70
2014,02,15,05,11,8.90
2014,02,15,05,12,8.40
2014,02,15,05,13,6.80
2014,02,15,05,14,6.30
2014,02,15,05,15,6.10
2014,02,15,05,16,6.10
2014,02,15,05,17,4.80
2014,02,15,05,18,6.40
2014,02,15,05,19,8.40
2014,02,15,05,20,8.80
2014,02,15,05,21,7.50
2014,02,15,05,22,8.10
2014,02,15,05,23,9.50
2014,02,15,05,24,8.70
2014,02,15,05,25,8.60
2014,02,15,05,26,10.30
2014,02,15,05,27,10.00
2014,02,15,05,28,8.50
2014,02,15,05,29,9.20
2014,02,15,05,30,9.60
2014,02,15,05,31,12.30
2014,02,15,05,32,12.30
2014,02,15,05,33,12.50
2014,02,15,05,34,10.10
2014,02,15,05,35,9.70
2014,02,15,05,36,10.30
2014,02,15,05,37,9.90
2014,02,15,05,38,9.90
2014,02,15,05,39,10.90
2014,02,15,05,40,15.00
2014,02,15,05,41,17.40
2014,02,15,05,42,13.30
2014,02,15,05,43,15.30
2014,02,15,05,44,16.90
2014,02,15,05,45,12.20
2014,02,15,05,46,11.50
2014,02,15,05,47,14.60
2014,02,15,05,48,18.60
2014,02,15,05,49,19.60
2014,02,15,05,50,16.50
2014,02,15,05,51,13.40
2014,02,15,05,52,11.10
2014,02,15,05,53,16.10
2014,02,15,05,54,16.50
2014,02,15,05,55,17.10
2014,02,15,05,56,14.60
2014,02,15,05,57,14.60
2014,02,15,05,58,13.00
2014,02,15,05,59,14.20
2014,02,15,06,00,19.10
2014,02,15,06,01,17.30
2014,02,15,06,02,15.90
2014,02,15,06,03,17.30
2014,02,15,06,04,15.70
2014,02,15,06,05,19.00
2014,02,15,06,06,18.10
2014,02,15,06,07,17.30
2014,02,15,06,08,16.00
2014,02,15,06,09,17.10
2014,02,15,06,10,13.50
2014,02,15,06,11,16.60
2014,02,15,06,12,11.80
2014,02,15,06,13,12.30
2014,02,15,06,14,15.60
2014,02,15,06,15,14.70
2014,02,15,06,16,19.40
2014,02,15,06,17,16.60
2014,02,15,06,18,14.60
2014,02,15,06,19,14.60
2014,02,15,06,20,13.80
2014,02,15,06,21,12.10
2014,02,15,06,22,14.70
2014,02,15,06,23,17.10
2014,02,15,06,24,19.90
2014,02,15,06,25,13.60
2014,02,15,06,26,10.90
2014,02,15,06,27,16.10
2014,02,15,06,28,13.10
2014,02,15,06,29,12.10
2014,02,15,06,30,15.30
2014,02,15,06,31,20.50
2014,02,15,06,32,16.70
2014,02,15,06,33,19.00
2014,02,15,06,34,14.70
2014,02,15,06,35,11.30
2014,02,15,06,36,15.70
2014,02,15,06,37,15.80
2014,02,15,06,38,16.50
2014,02,15,06,39,17.30
2014,02,15,06,40,17.10
2014,02,15,06,41,22.50
2014,02,15,06,42,20.60
2014,02,15,06,43,19.20
2014,02,15,06,44,21.70
2014,02,15,06,45,20.70
2014,02,15,06,46,22.10
2014,02,15,06,47,20.80
2014,02,15,06,48,19.50
2014,02,15,06,49,22.60
2014,02,15,06,50,21.70
2014,02,15,06,51,18.80
2014,02,15,06,52,19.10
2014,02,15,06,53,19.50
2014,02,15,06,54,20.80
2014,02,15,06,55,29.30
2014,02,15,06,56,23.70
2014,02,15,06,57,21.20
2014,02,15,06,58,23.50
2014,02,15,06,59,24.10
2014,02,15,07,00,25.70
2014,02,15,07,01,29.60
2014,02,15,07,02,32.10
2014,02,15,07,03,22.90
2014,02,15,07,04,24.80
2014,02,15,07,05,23.60
2014,02,15,07,06,22.40
2014,02,15,07,07,21.20
2014,02,15,07,08,28.70
2014,02,15,07,09,23.90
2014,02,15,07,10,20.00
2014,02,15,07,11,19.80
2014,02,15,07,12,20.80
2014,02,15,07,13,18.30
2014,02,15,07,14,18.00
2014,02,15,07,15,17.60
2014,02,15,07,16,15.10
2014,02,15,07,17,15.50
2014,02,15,07,18,16.10
2014,02,15,07,19,21.60
2014,02,15,07,20,23.80
2014,02,15,07,21,18.10
2014,02,15,07,22,21.50
2014,02,15,07,23,16.10
2014,02,15,07,24,12.30
2014,02,15,07,25,16.30
2014,02,15,07,26,12.90
2014,02,15,07,27,12.10
2014,02,15,07,28,16.80
2014,02,15,07,29,15.10
2014,02,15,07,30,13.40
2014,02,15,07,31,14.60
2014,02,15,07,32,19.50
2014,02,15,07,33,15.60
2014,02,15,07,34,16.70
2014,02,15,07,35,18.40
2014,02,15,07,36,21.10
2014,02,15,07,37,17.20
2014,02,15,07,38,19.10
2014,02,15,07,39,19.30
2014,02,15,07,40,17.10
2014,02,15,07,41,17.10
2014,02,15,07,42,16.10
2014,02,15,07,43,19.40
2014,02,15,07,44,21.50
2014,02,15,07,45,25.50
2014,02,15,07,46,18.50
2014,02,15,07,47,16.20
2014,02,15,07,48,19.00
2014,02,15,07,49,14.90
2014,02,15,07,50,13.50
2014,02,15,07,51,17.60
2014,02,15,07,52,19.90
2014,02,15,07,53,19.50
2014,02,15,07,54,18.00
2014,02,15,07,55,18.80
2014,02,15,07,56,17.50
2014,02,15,07,57,13.70
2014,02,15,07,58,15.80
2014,02,15,07,59,18.20
2014,02,15,08,00,19.60
2014,02,15,08,01,16.40
2014,02,15,08,02,19.70
2014,02,15,08,03,16.90
2014,02,15,08,04,15.00
2014,02,15,08,05,18.10
2014,02,15,08,06,20.20
2014,02,15,08,07,19.90
2014,02,15,08,08,17.00
2014,02,15,08,09,17.50
2014,02,15,08,10,13.20
2014,02,15,08,11,19.90
2014,02,15,08,12,15.50
2014,02,15,08,13,17.50
2014,02,15,08,14,14.20
2014,02,15,08,15,23.00
2014,02,15,08,16,17.20
2014,02,15,08,17,15.10
2014,02,15,08,18,18.70
2014,02,15,08,19,13.30
2014,02,15,08,20,14.20
2014,02,15,08,21,16.90
2014,02,15,08,22,12.60
2014,02,15,08,23,17.20
2014,02,15,08,24,13.00
2014,02,15,08,25,15.60
2014,02,15,08,26,19.40
2014,02,15,08,27,20.30
2014,02,15,08,28,16.00
2014,02,15,08,29,12.40
2014,02,15,08,30,11.30
2014,02,15,08,31,15.00
2014,02,15,08,32,16.20
2014,02,15,08,33,13.90
2014,02,15,08,34,17.10
2014,02,15,08,35,15.10
2014,02,15,08,36,16.90
2014,02,15,08,37,17.70
2014,02,15,08,38,19.30
2014,02,15,08,39,20.20
2014,02,15,08,40,15.90
2014,02,15,08,41,16.50
2014,02,15,08,42,17.10
2014,02,15,08,43,15.10
2014,02,15,08,44,15.00
2014,02,15,08,45,18.00
2014,02,15,08,46,13.90
2014,02,15,08,47,12.20
2014,02,15,08,48,12.50
2014,02,15,08,49,15.10
2014,02,15,08,50,17.10
2014,02,15,08,51,15.00
2014,02,15,08,52,14.90
2014,02,15,08,53,14.70
2014,02,15,08,54,12.20
2014,02,15,08,55,9.90
2014,02,15,08,56,10.20
2014,02,15,08,57,8.10
2014,02,15,08,58,8.80
2014,02,15,08,59,9.00
2014,02,15,09,00,14.00
2014,02,15,09,01,11.80
2014,02,15,09,02,8.10
2014,02,15,09,03,10.10
2014,02,15,09,04,10.00
2014,02,15,09,05,12.40
2014,02,15,09,06,14.10
2014,02,15,09,07,9.20
2014,02,15,09,08,12.20
2014,02,15,09,09,13.00
2014,02,15,09,10,11.50
2014,02,15,09,11,12.50
2014,02,15,09,12,13.00
2014,02,15,09,13,18.00
2014,02,15,09,14,15.90
2014,02,15,09,15,15.90
2014,02,15,09,16,15.50
2014,02,15,09,17,17.10
2014,02,15,09,18,16.60
2014,02,15,09,19,20.10
2014,02,15,09,20,18.30
2014,02,15,09,21,23.40
2014,02,15,09,22,18.00
2014,02,15,09,23,18.10
2014,02,15,09,24,17.40
2014,02,15,09,25,18.70
2014,02,15,09,26,16.30
2014,02,15,09,27,19.50
2014,02,15,09,28,23.80
2014,02,15,09,29,22.00
2014,02,15,09,30,18.70
2014,02,15,09,31,20.30
2014,02,15,09,32,24.40
2014,02,15,09,33,20.30
2014,02,15,09,34,21.50
2014,02,15,09,35,19.70
2014,02,15,09,36,22.50
2014,02,15,09,37,14.80
2014,02,15,09,38,23.00
2014,02,15,09,39,20.10
2014,02,15,09,40,18.30
2014,02,15,09,41,19.30
2014,02,15,09,42,21.10
2014,02,15,09,43,19.30
2014,02,15,09,44,16.20
2014,02,15,09,45,16.90
2014,02,15,09,46,18.90
2014,02,15,09,47,22.60
2014,02,15,09,48,22.40
2014,02,15,09,49,22.90
2014,02,15,09,50,17.40
2014,02,15,09,51,20.10
2014,02,15,09,52,17.30
2014,02,15,09,53,15.80
2014,02,15,09,54,18.80
2014,02,15,09,55,20.00
2014,02,15,09,56,24.10
2014,02,15,09,57,22.90
2014,02,15,09,58,21.80
2014,02,15,09,59,17.90
2014,02,15,10,00,18.10
2014,02,15,10,01,23.10
2014,02,15,10,02,22.90
2014,02,15,10,03,17.00
2014,02,15,10,04,17.30
2014,02,15,10,05,18.30
2014,02,15,10,06,19.30
2014,02,15,10,07,22.50
2014,02,15,10,08,20.10
2014,02,15,10,09,20.00
2014,02,15,10,10,20.30
2014,02,15,10,11,12.50
2014,02,15,10,12,14.20
2014,02,15,10,13,15.60
2014,02,15,10,14,16.90
2014,02,15,10,15,15.60
2014,02,15,10,16,19.00
2014,02,15,10,17,19.10
2014,02,15,10,18,18.70
2014,02,15,10,19,18.40
2014,02,15,10,20,15.60
2014,02,15,10,21,17.70
2014,02,15,10,22,19.20
2014,02,15,10,23,20.00
2014,02,15,10,24,15.50
2014,02,15,10,25,13.00
2014,02,15,10,26,14.50
2014,02,15,10,27,15.50
2014,02,15,10,28,17.80
2014,02,15,10,29,12.00
2014,02,15,10,30,16.40
2014,02,15,10,31,16.30
2014,02,15,10,32,17.00
2014,02,15,10,33,16.30
2014,02,15,10,34,15.00
2014,02,15,10,35,19.60
2014,02,15,10,36,18.00
2014,02,15,10,37,20.90
2014,02,15,10,38,13.20
2014,02,15,10,39,15.00
2014,02,15,10,40,15.40
2014,02,15,10,41,19.00
2014,02,15,10,42,19.90
2014,02,15,10,43,15.10
2014,02,15,10,44,16.30
2014,02,15,10,45,16.80
2014,02,15,10,46,14.00
2014,02,15,10,47,11.10
2014,02,15,10,48,15.00
2014,02,15,10,49,13.10
2014,02,15,10,50,15.00
2014,02,15,10,51,10.00
2014,02,15,10,52,14.70
2014,02,15,10,53,13.80
2014,02,15,10,54,16.20
2014,02,15,10,55,16.30
2014,02,15,10,56,18.20
2014,02,15,10,57,21.30
2014,02,15,10,58,16.60
2014,02,15,10,59,14.30
2014,02,15,11,00,17.40
2014,02,15,11,01,20.20
2014,02,15,11,02,18.80
2014,02,15,11,03,20.20
2014,02,15,11,04,19.40
2014,02,15,11,05,18.10
2014,02,15,11,06,20.90
2014,02,15,11,07,19.80
2014,02,15,11,08,17.10
2014,02,15,11,09,16.10
2014,02,15,11,10,19.60
2014,02,15,11,11,17.60
2014,02,15,11,12,15.80
2014,02,15,11,13,14.40
2014,02,15,11,14,23.30
2014,02,15,11,15,19.80
2014,02,15,11,16,18.70
2014,02,15,11,17,20.70
2014,02,15,11,18,19.00
2014,02,15,11,19,16.90
2014,02,15,11,20,22.40
2014,02,15,11,21,23.30
2014,02,15,11,22,22.10
2014,02,15,11,23,21.90
2014,02,15,11,24,18.80
2014,02,15,11,25,26.20
2014,02,15,11,26,20.50
2014,02,15,11,27,19.50
2014,02,15,11,28,20.00
2014,02,15,11,29,19.00
2014,02,15,11,30,21.50
2014,02,15,11,31,18.90
2014,02,15,11,32,26.10
2014,02,15,11,33,20.70
2014,02,15,11,34,19.70
2014,02,15,11,35,22.40
2014,02,15,11,36,26.80
2014,02,15,11,37,21.20
2014,02,15,11,38,16.30
2014,02,15,11,39,23.20
2014,02,15,11,40,16.40
2014,02,15,11,41,15.90
2014,02,15,11,42,23.90
2014,02,15,11,43,20.00
2014,02,15,11,44,17.30
2014,02,15,11,45,18.00
2014,02,15,11,46,22.40
2014,02,15,11,47,19.60
2014,02,15,11,48,17.40
2014,02,15,11,49,20.50
2014,02,15,11,50,23.30
2014,02,15,11,51,21.70
2014,02,15,11,52,18.40
2014,02,15,11,53,18.10
2014,02,15,11,54,15.90
2014,02,15,11,55,17.20
2014,02,15,11,56,19.70
2014,02,15,11,57,14.40
2014,02,15,11,58,21.70
2014,02,15,11,59,19.30
2014,02,15,12,00,19.00
2014,02,15,12,01,22.20
2014,02,15,12,02,20.80
2014,02,15,12,03,22.10
2014,02,15,12,04,18.20
2014,02,15,12,05,18.00
2014,02,15,12,06,24.20
2014,02,15,12,07,19.90
2014,02,15,12,08,18.00
2014,02,15,12,09,18.10
2014,02,15,12,10,19.50
2014,02,15,12,11,24.10
2014,02,15,12,12,22.80
2014,02,15,12,13,18.40
2014,02,15,12,14,20.30
2014,02,15,12,15,19.60
2014,02,15,12,16,15.40
2014,02,15,12,17,19.30
2014,02,15,12,18,21.00
2014,02,15,12,19,24.90
2014,02,15,12,20,20.80
2014,02,15,12,21,24.90
2014,02,15,12,22,17.70
2014,02,15,12,23,20.80
2014,02,15,12,24,25.90
2014,02,15,12,25,24.70
2014,02,15,12,26,23.70
2014,02,15,12,27,22.70
2014,02,15,12,28,26.60
2014,02,15,12,29,27.40
2014,02,15,12,30,23.00
2014,02,15,12,31,25.40
2014,02,15,12,32,18.70
2014,02,15,12,33,16.50
2014,02,15,12,34,17.40
2014,02,15,12,35,18.80
2014,02,15,12,36,22.90
2014,02,15,12,37,25.70
2014,02,15,12,38,25.20
2014,02,15,12,39,25.00
2014,02,15,12,40,21.80
2014,02,15,12,41,22.70
2014,02,15,12,42,26.40
2014,02,15,12,43,20.20
2014,02,15,12,44,13.00
2014,02,15,12,45,20.40
2014,02,15,12,46,20.80
2014,02,15,12,47,24.90
2014,02,15,12,48,22.20
2014,02,15,12,49,25.80
2014,02,15,12,50,26.90
2014,02,15,12,51,28.30
2014,02,15,12,52,21.80
2014,02,15,12,53,18.30
2014,02,15,12,54,31.10
2014,02,15,12,55,32.50
2014,02,15,12,56,22.90
2014,02,15,12,57,23.50
2014,02,15,12,58,23.90
2014,02,15,12,59,27.40
2014,02,15,13,00,24.60
2014,02,15,13,01,17.80
2014,02,15,13,02,22.20
2014,02,15,13,03,19.70
2014,02,15,13,04,23.70
2014,02,15,13,05,24.80
2014,02,15,13,06,21.80
2014,02,15,13,07,21.40
2014,02,15,13,08,22.00
2014,02,15,13,09,19.50
2014,02,15,13,10,20.40
2014,02,15,13,11,24.70
2014,02,15,13,12,18.10
2014,02,15,13,13,17.90
2014,02,15,13,14,18.80
2014,02,15,13,15,23.00
2014,02,15,13,16,26.60
2014,02,15,13,17,22.80
2014,02,15,13,18,32.80
2014,02,15,13,19,29.70
2014,02,15,13,20,20.90
2014,02,15,13,21,22.60
2014,02,15,13,22,23.70
2014,02,15,13,23,19.40
2014,02,15,13,24,29.10
2014,02,15,13,25,23.40
2014,02,15,13,26,22.90
2014,02,15,13,27,30.70
2014,02,15,13,28,24.80
2014,02,15,13,29,21.30
2014,02,15,13,30,21.60
2014,02,15,13,31,19.40
2014,02,15,13,32,23.80
2014,02,15,13,33,20.00
2014,02,15,13,34,22.30
2014,02,15,13,35,16.60
2014,02,15,13,36,18.40
2014,02,15,13,37,17.90
2014,02,15,13,38,19.20
2014,02,15,13,39,21.60
2014,02,15,13,40,16.80
2014,02,15,13,41,22.10
2014,02,15,13,42,24.70
2014,02,15,13,43,15.90
2014,02,15,13,44,19.90
2014,02,15,13,45,25.10
2014,02,15,13,46,22.20
2014,02,15,13,47,19.10
2014,02,15,13,48,20.40
2014,02,15,13,49,17.30
2014,02,15,13,50,19.90
2014,02,15,13,51,18.70
2014,02,15,13,52,21.10
2014,02,15,13,53,20.80
2014,02,15,13,54,19.20
2014,02,15,13,55,22.30
2014,02,15,13,56,20.80
2014,02,15,13,57,15.70
2014,02,15,13,58,16.70
2014,02,15,13,59,15.30
2014,02,15,14,00,16.60
2014,02,15,14,01,15.80
2014,02,15,14,02,25.20
2014,02,15,14,03,21.00
2014,02,15,14,04,22.50
2014,02,15,14,05,21.50
2014,02,15,14,06,26.40
2014,02,15,14,07,20.40
2014,02,15,14,08,26.60
2014,02,15,14,09,27.90
2014,02,15,14,10,24.10
2014,02,15,14,11,23.10
2014,02,15,14,12,31.90
2014,02,15,14,13,24.80
2014,02,15,14,14,22.30
2014,02,15,14,15,24.40
2014,02,15,14,16,22.00
2014,02,15,14,17,20.50
2014,02,15,14,18,24.30
2014,02,15,14,19,31.90
2014,02,15,14,20,32.60
2014,02,15,14,21,28.70
2014,02,15,14,22,28.20
2014,02,15,14,23,26.10
2014,02,15,14,24,22.20
2014,02,15,14,25,29.10
2014,02,15,14,26,31.80
2014,02,15,14,27,26.20
2014,02,15,14,28,24.50
2014,02,15,14,29,25.10
2014,02,15,14,30,34.10
2014,02,15,14,31,32.20
2014,02,15,14,32,29.40
2014,02,15,14,33,27.50
2014,02,15,14,34,22.20
2014,02,15,14,35,26.20
2014,02,15,14,36,23.50
2014,02,15,14,37,22.90
2014,02,15,14,38,30.20
2014,02,15,14,39,32.10
2014,02,15,14,40,23.70
2014,02,15,14,41,29.60
2014,02,15,14,42,31.10
2014,02,15,14,43,33.80
2014,02,15,14,44,22.50
2014,02,15,14,45,32.70
2014,02,15,14,46,24.20
2014,02,15,14,47,26.90
2014,02,15,14,48,19.70
2014,02,15,14,49,27.70
2014,02,15,14,50,20.70
2014,02,15,14,51,18.70
2014,02,15,14,52,28.10
2014,02,15,14,53,28.40
2014,02,15,14,54,28.50
2014,02,15,14,55,22.90
2014,02,15,14,56,32.10
2014,02,15,14,57,36.40
2014,02,15,14,58,26.20
2014,02,15,14,59,25.80
2014,02,15,15,00,29.80
2014,02,15,15,01,29.40
2014,02,15,15,02,25.80
2014,02,15,15,03,21.60
2014,02,15,15,04,23.70
2014,02,15,15,05,27.80
2014,02,15,15,06,24.90
2014,02,15,15,07,22.50
2014,02,15,15,08,22.50
2014,02,15,15,09,24.50
2014,02,15,15,10,29.00
2014,02,15,15,11,31.10
2014,02,15,15,12,20.30
2014,02,15,15,13,30.10
2014,02,15,15,14,29.00
2014,02,15,15,15,23.50
2014,02,15,15,16,22.40
2014,02,15,15,17,25.70
2014,02,15,15,18,31.00
2014,02,15,15,19,32.30
2014,02,15,15,20,41.20
2014,02,15,15,21,36.50
2014,02,15,15,22,26.00
2014,02,15,15,23,28.30
2014,02,15,15,24,28.30
2014,02,15,15,25,20.50
2014,02,15,15,26,29.70
2014,02,15,15,27,22.40
2014,02,15,15,28,37.30
2014,02,15,15,29,30.30
2014,02,15,15,30,31.50
2014,02,15,15,31,27.70
2014,02,15,15,32,28.60
2014,02,15,15,33,29.50
2014,02,15,15,34,27.90
2014,02,15,15,35,30.70
2014,02,15,15,36,26.30
2014,02,15,15,37,26.60
2014,02,15,15,38,34.70
2014,02,15,15,39,26.70
2014,02,15,15,40,29.00
2014,02,15,15,41,32.60
2014,02,15,15,42,35.60
2014,02,15,15,43,33.90
2014,02,15,15,44,25.30
2014,02,15,15,45,24.10
2014,02,15,15,46,20.50
2014,02,15,15,47,26.90
2014,02,15,15,48,30.50
2014,02,15,15,49,29.40
2014,02,15,15,50,22.70
2014,02,15,15,51,24.10
2014,02,15,15,52,27.90
2014,02,15,15,53,31.60
2014,02,15,15,54,27.00
2014,02,15,15,55,23.70
2014,02,15,15,56,24.60
2014,02,15,15,57,21.40
2014,02,15,15,58,26.50
2014,02,15,15,59,27.00
2014,02,15,16,00,27.60
2014,02,15,16,01,30.80
2014,02,15,16,02,28.60
2014,02,15,16,03,22.30
2014,02,15,16,04,33.60
2014,02,15,16,05,30.00
2014,02,15,16,06,22.10
2014,02,15,16,07,31.40
2014,02,15,16,08,30.10
2014,02,15,16,09,23.80
2014,02,15,16,10,28.60
2014,02,15,16,11,39.50
2014,02,15,16,12,29.90
2014,02,15,16,13,34.90
2014,02,15,16,14,33.50
2014,02,15,16,15,32.80
2014,02,15,16,16,28.70
2014,02,15,16,17,34.10
2014,02,15,16,18,32.40
2014,02,15,16,19,33.70
2014,02,15,16,20,28.90
2014,02,15,16,21,28.80
2014,02,15,16,22,29.50
2014,02,15,16,23,24.90
2014,02,15,16,24,25.70
2014,02,15,16,25,22.80
2014,02,15,16,26,30.70
2014,02,15,16,27,21.60
2014,02,15,16,28,31.80
2014,02,15,16,29,37.80
2014,02,15,16,30,29.10
2014,02,15,16,31,22.30
2014,02,15,16,32,25.50
2014,02,15,16,33,23.70
2014,02,15,16,34,21.90
2014,02,15,16,35,16.70
2014,02,15,16,36,24.30
2014,02,15,16,37,17.90
2014,02,15,16,38,20.20
2014,02,15,16,39,23.40
2014,02,15,16,40,25.20
2014,02,15,16,41,18.70
2014,02,15,16,42,25.90
2014,02,15,16,43,26.20
2014,02,15,16,44,25.00
2014,02,15,16,45,30.20
2014,02,15,16,46,29.10
2014,02,15,16,47,34.10
2014,02,15,16,48,27.00
2014,02,15,16,49,35.20
2014,02,15,16,50,32.00
2014,02,15,16,51,28.60
2014,02,15,16,52,28.00
2014,02,15,16,53,31.80
2014,02,15,16,54,30.70
2014,02,15,16,55,36.40
2014,02,15,16,56,33.20
2014,02,15,16,57,31.40
2014,02,15,16,58,27.40
2014,02,15,16,59,29.30
2014,02,15,17,00,31.70
2014,02,15,17,01,23.70
2014,02,15,17,02,26.00
2014,02,15,17,03,31.40
2014,02,15,17,04,29.30
2014,02,15,17,05,26.50
2014,02,15,17,06,28.60
2014,02,15,17,07,29.20
2014,02,15,17,08,22.10
2014,02,15,17,09,24.70
2014,02,15,17,10,36.50
2014,02,15,17,11,28.30
2014,02,15,17,12,24.10
2014,02,15,17,13,27.80
2014,02,15,17,14,27.40
2014,02,15,17,15,28.60
2014,02,15,17,16,32.70
2014,02,15,17,17,24.80
2014,02,15,17,18,30.00
2014,02,15,17,19,26.50
2014,02,15,17,20,28.00
2014,02,15,17,21,22.50
2014,02,15,17,22,21.20
2014,02,15,17,23,27.10
2014,02,15,17,24,22.50
2014,02,15,17,25,26.40
2014,02,15,17,26,28.30
2014,02,15,17,27,32.80
2014,02,15,17,28,27.30